Great Bend, NY

4:53 PM EST on February 23, 2017 (GMT -0500)
Wheeler-Sack Army Air Field

Weather History for KGTB - November, 2013

Change the Weather History Date:

Saturday, November 16, 2013

  Actual Average Record
Temperature  
Mean Temperature 46 °F -  
Max Temperature 55 °F 42 °F 66 °F (2005)
Min Temperature 36 °F 27 °F 12 °F (1996)
Degree Days  
Heating Degree Days 20    
Moisture  
Dew Point 30 °F    
Average Humidity 56    
Maximum Humidity 66    
Minimum Humidity 42    
Precipitation  
Precipitation 0.00 in - - ()
Sea Level Pressure  
Sea Level Pressure 30.19 in    
Wind  
Wind Speed 8 mph (SSE)    
Max Wind Speed 14 mph    
Max Gust Speed -    
Visibility 10 miles    
Events      
Averages and records for this station are not official NWS values.
T = Trace of Precipitation, MM = Missing Value Source: NWS Daily Summary

Daily Weather History Graph

Daily Weather History Graph

Search for Another Location

Airport or City:

Trip Planner

Search our weather history database for the weather conditions in past years. The results will help you decide how hot, cold, wet, or windy it might be!

Date:

Astronomy

Nov. 16, 2013 Rise Set
Actual Time 6:59 AM EST 4:35 PM EST
Civil Twilight 6:28 AM EST 5:06 PM EST
Nautical Twilight 5:53 AM EST 5:41 PM EST
Astronomical Twilight 5:19 AM EST 6:15 PM EST
Moon 4:10 PM EST (11/16) 5:51 AM EST (11/16)
Length of Visible Light 10h 38m
Length of Day
9h 35m
Waxing Gibbous, 99% of the Moon is Illuminated
Nov 16
Waxing Gibbous
Nov 17
Full
Nov 25
Last Quarter
Dec 2
New
Dec 9
First Quarter

Hourly Weather History & Observations

Time (EST) Temp. Windchill Dew Point Humidity Pressure Visibility Wind Dir Wind Speed Gust Speed Precip Events Conditions
12:58 AM 38.8 °F 32.6 °F 25.3 °F 58% 30.13 in 10.0 mi SE 9.2 mph - N/A   Partly Cloudy
1:58 AM 37.8 °F 35.3 °F 25.3 °F 61% 30.16 in 10.0 mi SSE 3.5 mph - N/A   Clear
2:58 AM 37.9 °F 33.5 °F 25.3 °F 60% 30.17 in 10.0 mi SE 5.8 mph - N/A   Clear
3:58 AM 36.9 °F 30.7 °F 24.8 °F 62% 30.18 in 10.0 mi South 8.1 mph - N/A   Clear
4:58 AM 37.2 °F 30.6 °F 25.5 °F 63% 30.18 in 10.0 mi SSE 9.2 mph - N/A   Clear
5:58 AM 37.9 °F 32.1 °F 26.1 °F 62% 30.18 in 10.0 mi SSE 8.1 mph - N/A   Overcast
6:58 AM 38.3 °F 31.9 °F 26.8 °F 63% 30.20 in 10.0 mi SE 9.2 mph - N/A   Overcast
7:58 AM 40.5 °F 35.1 °F 27.7 °F 60% 30.22 in 10.0 mi SSE 8.1 mph - N/A   Overcast
8:58 AM 44.2 °F 39.7 °F 28.9 °F 55% 30.23 in 10.0 mi SSE 8.1 mph - N/A   Mostly Cloudy
9:58 AM 46.6 °F - 31.3 °F 55% 30.26 in 10.0 mi SE 6.9 mph - N/A   Overcast
10:58 AM 52.9 °F - 31.5 °F 44% 30.25 in 10.0 mi SW 11.5 mph - N/A   Scattered Clouds
11:58 AM 54.0 °F - 32.5 °F 44% 30.24 in 10.0 mi SW 9.2 mph - N/A   Mostly Cloudy
12:58 PM 53.6 °F - 32.0 °F 44% 30.22 in 10.0 mi WSW 8.1 mph - N/A   Mostly Cloudy
1:58 PM 54.0 °F - 31.8 °F 43% 30.22 in 10.0 mi SW 4.6 mph - N/A   Scattered Clouds
2:58 PM 55.8 °F - 33.1 °F 42% 30.21 in 10.0 mi Calm Calm - N/A   Mostly Cloudy
3:58 PM 54.3 °F - 33.3 °F 45% 30.20 in 10.0 mi South 2.3 mph - N/A   Clear
4:58 PM 48.0 °F - 32.7 °F 55% 30.19 in 10.0 mi SSE 5.8 mph - N/A   Clear
5:58 PM 45.5 °F 42.5 °F 33.1 °F 62% 30.19 in 10.0 mi SSE 5.8 mph - N/A   Clear
6:58 PM 46.4 °F 41.5 °F 33.3 °F 60% 30.17 in 10.0 mi SSE 10.4 mph - N/A   Clear
7:58 PM 45.5 °F 39.9 °F 33.1 °F 62% 30.17 in 10.0 mi SE 11.5 mph - N/A   Clear
8:58 PM 45.9 °F 40.0 °F 33.6 °F 62% 30.16 in 10.0 mi SE 12.7 mph - N/A   Clear
9:58 PM 45.9 °F 39.7 °F 33.1 °F 61% 30.16 in 10.0 mi SSE 13.8 mph - N/A   Clear
10:58 PM 44.8 °F 39.4 °F 33.3 °F 64% 30.13 in 10.0 mi SE 10.4 mph - N/A   Clear
11:58 PM 45.1 °F 39.1 °F 34.3 °F 66% 30.12 in 10.0 mi SE 12.7 mph - N/A   Clear